Tracking 20942 objects as of 10-Jul-2020
HD Live streaming from Space Station
objects crossing your sky now

AQT-D

Track AQT-D now!
10-day predictions
AQT-D is classified as:


NORAD ID: 44791
Int'l Code: 1998-067QU
Perigee: 410.4 km
Apogee: 420.4 km
Inclination: 51.6 °
Period: 92.7 minutes
Semi major axis: 6786 km
RCS: Unknown
Launch date: November 20, 1998
Source: Japan (JPN)
Launch site: TYURATAM MISSILE AND SPACE COMPLEX (TTMTR)

Uplink (MHz):
Downlink (MHz):
Beacon (MHz):
Mode:
Call sign:
Status: Unknown

aabbcc
Your satellite tracking list
Your tracking list is empty




NASA's NSSDC Master Catalog

Two Line Element Set (TLE):
1 44791U 98067QW  20191.51706426  .00002720  00000-0  50428-4 0  9993
2 44791  51.6421 234.0809 0007440  72.2707 287.9095 15.52901153 36058
Source of the keplerian elements: AFSPC